Theta_e
352 352 352 347 344 346 345 345 345 346 348 350 345 352 349 348 349 353 350 348 345 346 347 348 348 346 345 346 346 348 344 342 345 345 346 347 347 345
350 350 351 347 347 347 346 345 347 345 346 341 343 351 351 354 351 353 354 348 345 346 346 347 345 344 345 346 345 345 345 342 344 345 343 342 343 346
353 352 352 352 350 346 352 346 345 345 349 343 350 356 355 353 354 354 352 345 344 344 343 345 346 346 346 344 344 344 341 345 344 340 340 340 341 341
352 352 353 351 353 354 351 348 345 350 349 353 350 350 353 353 353 355 350 342 338 338 340 340 342 344 345 346 347 347 347 346 341 341 341 339 339 339
351 351 352 353 353 352 353 353 352 351 353 351 350 351 350 350 354 353 353 347 335 333 333 335 335 338 341 342 343 345 346 346 345 342 345 346 344 340
353 353 354 354 353 353 353 351 351 351 354 350 349 351 351 348 350 350 352 351 341 336 334 331 329 328 331 334 336 339 342 343 343 343 342 341 343 344
353 353 354 353 352 352 352 352 352 352 351 350 351 348 348 350 350 350 350 351 348 347 340 333 331 326 322 323 327 331 334 337 337 335 336 337 339 341
354 355 354 353 350 348 346 347 347 345 349 351 348 351 349 354 349 349 350 350 350 348 342 333 328 321 320 318 321 323 324 325 325 323 321 321 321 320
351 352 354 352 351 352 349 347 346 346 346 350 352 351 354 355 352 350 349 352 351 345 340 336 329 321 316 314 318 319 320 321 318 316 311 307 309 310
351 352 352 353 353 352 352 352 351 346 345 345 348 350 348 348 349 348 349 352 347 344 343 341 332 322 313 307 303 302 303 305 309 312 310 308 307 305
347 348 345 350 350 347 345 350 348 342 333 337 337 337 335 333 339 341 345 346 345 341 337 339 335 328 320 313 314 311 307 301 301 301 301 304 309 311
338 337 340 340 338 339 345 348 347 344 337 336 333 331 330 330 333 336 333 337 340 338 333 333 332 329 326 325 316 315 312 309 308 306 301 304 308 311
335 330 332 334 331 329 330 337 339 337 332 330 329 326 326 324 323 326 323 324 328 327 321 324 327 325 328 328 324 318 315 311 311 310 310 303 302 312
332 331 331 334 333 331 329 321 321 325 328 328 326 324 321 321 320 317 316 316 315 318 319 318 326 322 321 322 324 318 315 312 311 312 312 310 308 306
326 324 322 322 323 325 322 322 323 323 324 325 324 323 321 319 316 314 313 312 312 311 310 309 315 315 315 317 319 317 315 313 311 311 311 311 311 311
318 317 317 317 319 320 321 321 320 320 321 321 318 317 314 314 316 314 316 314 314 315 311 305 314 313 313 314 314 314 311 312 312 311 311 310 310 309
317 316 317 316 316 315 316 317 318 318 319 319 319 319 318 317 316 314 314 314 314 315 313 312 307 309 312 312 312 311 311 311 310 311 312 311 310 309
316 315 315 315 316 316 316 315 315 314 314 313 313 312 313 312 312 311 310 310 310 311 310 310 310 310 310 308 305 310 310 309 310 310 310 309 310 311
315 312 312 312 312 312 313 311 309 308 308 308 308 309 308 306 305 308 308 307 308 308 308 308 308 309 310 312 307 303 309 309 309 309 309 308 308 308
311 312 314 313 314 314 312 311 309 307 309 310 308 309 308 307 307 307 306 307 307 308 307 308 307 308 309 311 310 307 303 305 306 307 307 307 306 306
314 313 313 313 314 314 313 312 311 311 310 310 310 310 308 308 309 307 307 305 304 306 307 307 306 301 303 305 306 307 306 305 304 301 301 303 304 305
313 314 314 315 315 315 315 314 313 312 311 311 310 309 308 307 306 306 306 305 305 305 306 306 304 304 305 305 306 307 307 305 305 304 304 303 303 304
312 314 315 316 316 316 316 314 313 312 311 310 309 308 307 306 305 305 305 305 305 305 305 305 305 304 304 304 304 304 304 305 305 305 305 304 304 303
Wind_Speed
10 10 9 12 14 7 10 10 9 8 4 2 2 6 5 9 6 9 1 14 10 11 12 13 11 10 8 6 7 10 9 7 6 5 8 9 10 10
13 10 8 12 15 11 10 10 10 10 8 10 12 1 6 3 7 6 6 9 10 11 13 13 12 13 12 13 9 7 6 4 3 3 3 5 9 11
11 12 11 10 13 14 16 9 10 10 11 11 12 8 5 2 6 5 2 5 9 11 12 12 10 11 13 14 13 11 7 2 2 2 1 0 3 6
13 12 11 14 10 13 13 12 11 11 10 11 15 7 4 1 4 2 4 3 7 11 11 12 12 11 11 10 9 6 3 2 3 5 4 3 2 2
13 12 12 11 12 15 11 13 10 6 7 9 14 10 10 6 7 3 3 2 4 6 10 11 14 12 11 12 12 11 9 7 4 5 6 6 5 2
13 13 14 17 14 14 13 13 13 10 8 9 14 18 15 10 6 8 6 6 5 3 1 6 14 14 13 13 14 14 12 12 11 7 4 6 6 6
14 13 15 16 18 14 13 12 13 11 12 12 14 15 10 8 5 11 9 10 8 6 3 2 5 9 11 12 14 14 13 13 12 12 10 9 8 9
13 13 15 15 14 17 16 17 15 11 12 11 16 9 3 11 5 6 8 12 5 8 6 1 2 6 7 9 11 11 12 12 11 12 14 15 15 15
13 12 12 13 14 12 12 14 14 13 14 10 10 11 10 7 11 6 5 7 9 10 9 7 4 5 5 5 5 6 8 8 8 9 10 11 11 10
12 11 11 11 12 12 10 9 8 4 4 5 6 6 6 6 5 7 6 7 5 7 8 7 9 8 6 2 5 6 6 6 5 3 4 8 11 12
7 11 11 7 9 8 10 8 8 2 4 4 6 8 8 10 11 7 6 7 9 7 4 7 10 8 8 8 2 4 5 5 6 5 2 3 6 7
6 6 8 4 2 3 4 4 5 4 2 2 4 4 4 4 3 4 2 7 14 6 7 4 9 8 8 9 10 2 2 6 5 8 5 3 3 6
10 6 5 3 2 1 2 3 1 1 4 2 1 3 4 4 4 3 3 6 8 10 1 2 5 10 13 7 9 7 6 4 3 3 5 6 1 2
9 9 7 6 4 3 2 0 2 4 1 1 2 2 4 6 6 5 5 5 6 3 5 3 5 7 8 10 8 9 5 2 3 2 2 5 5 6
5 4 5 6 5 4 4 4 4 2 3 3 0 5 4 1 3 6 5 6 5 6 5 2 2 2 5 10 9 7 6 5 2 1 1 1 1 0
10 8 8 6 5 7 5 4 3 1 1 1 3 2 2 3 3 7 6 5 6 3 8 4 3 4 4 4 4 4 2 3 2 1 2 2 1 0
10 7 6 7 8 8 6 6 3 1 2 2 2 3 2 4 4 3 5 6 7 3 1 4 7 3 3 1 3 1 1 3 1 3 4 4 3 2
7 8 10 7 5 4 5 6 7 3 5 3 9 11 9 7 6 4 4 6 6 2 1 3 3 1 2 1 1 1 2 3 2 2 3 5 7 6
2 3 4 8 6 5 6 5 4 3 2 3 5 8 7 8 6 4 2 2 4 2 3 3 4 6 7 4 5 1 2 2 3 4 4 5 5 5
3 4 3 4 6 6 4 3 2 3 1 1 1 2 2 4 3 4 6 4 5 3 2 1 1 4 5 3 5 3 4 1 3 5 5 7 9 12
3 4 2 3 5 5 4 4 3 3 3 3 3 3 4 7 5 5 2 2 4 3 4 2 1 3 3 5 4 6 6 3 3 4 5 6 10 11
6 7 4 3 2 3 5 3 3 2 3 5 5 5 4 5 7 5 3 4 2 5 3 1 3 3 5 6 6 6 4 3 6 10 9 7 5 4
7 7 6 3 2 3 3 4 5 6 5 7 7 6 5 7 6 6 5 5 6 5 4 5 4 2 4 6 7 8 9 10 8 8 12 12 14 14
Wind_Direction
266 248 256 269 281 272 283 277 292 302 298 131 330 220 43 341 24 143 126 3 7 7 10 9 10 6 0 330 265 230 207 205 214 226 224 221 222 219
264 268 252 277 295 268 256 280 282 282 292 297 268 353 24 53 14 21 347 359 18 15 15 15 23 28 34 44 60 137 169 192 244 283 261 228 222 220
265 283 278 271 273 286 325 275 268 287 293 286 18 58 357 334 330 350 300 75 43 28 24 24 29 35 42 52 69 93 114 127 333 348 5 237 217 228
260 255 261 261 261 265 286 286 291 307 299 326 303 310 243 266 275 270 156 92 54 40 33 37 39 44 47 53 60 67 68 63 81 83 70 70 112 200
268 263 274 271 263 266 287 290 281 263 250 269 286 271 269 233 204 214 179 148 110 55 31 32 26 33 44 51 54 52 54 57 55 77 86 82 72 57
258 267 259 265 259 252 256 267 280 285 271 270 277 273 248 197 219 197 207 206 169 159 115 39 28 28 41 56 53 52 53 57 58 62 95 105 104 97
255 257 256 258 263 260 246 257 262 269 266 270 264 270 342 285 148 203 191 196 204 218 181 134 41 36 40 49 56 50 49 50 55 64 67 67 72 84
266 262 259 266 257 253 254 256 254 252 266 269 282 314 246 261 293 258 192 179 197 201 200 150 65 54 56 56 62 46 39 42 56 66 71 70 68 74
263 261 261 275 252 248 248 248 244 245 247 251 273 295 311 311 301 306 274 237 238 189 203 182 174 108 79 42 44 18 19 30 39 46 64 64 57 58
272 270 264 267 257 237 232 237 223 182 238 242 277 254 249 252 254 279 275 267 231 196 194 213 180 157 137 95 52 28 15 15 14 33 48 60 65 60
271 257 265 266 244 264 225 236 229 191 318 281 263 272 277 259 249 265 256 252 251 235 220 265 184 165 189 187 242 12 16 35 39 18 31 104 94 79
242 247 219 239 242 223 193 241 238 248 245 338 0 15 36 44 215 250 325 301 258 205 181 243 191 186 220 209 192 238 248 11 37 36 24 297 288 299
239 225 194 213 328 328 280 213 250 222 279 303 91 94 70 84 4 4 5 11 355 68 62 246 294 269 246 167 201 201 212 275 273 22 42 42 247 242
235 226 233 221 211 239 246 155 162 124 16 248 186 53 31 4 351 14 15 24 22 32 333 332 305 330 317 308 206 178 194 245 262 260 262 341 46 69
128 115 79 79 94 92 108 135 111 116 213 228 198 154 148 192 346 337 353 352 353 333 317 312 339 322 280 280 277 156 174 205 233 258 287 317 1 252
87 77 78 66 70 70 67 66 76 115 335 343 261 289 255 347 294 331 306 330 297 161 7 6 21 4 297 294 309 162 210 263 182 311 259 217 221 138
108 103 87 77 71 67 62 80 31 164 160 163 187 233 198 230 177 326 299 289 281 267 100 63 27 52 33 48 287 292 230 234 257 352 323 252 216 245
99 116 109 81 70 100 140 133 116 87 86 49 52 34 22 10 11 18 344 333 338 352 359 9 346 251 203 208 263 331 287 306 342 297 298 301 296 193
146 158 166 152 169 194 218 209 183 194 187 194 235 243 259 260 243 250 261 300 347 8 31 24 341 328 304 305 124 151 327 326 323 303 347 320 315 319
226 208 210 206 224 220 209 180 168 204 256 343 181 227 258 267 259 241 246 238 233 202 269 284 66 16 6 360 347 40 358 22 336 331 332 321 302 285
17 334 292 238 207 209 203 196 191 229 259 280 272 283 282 281 274 289 288 281 317 299 280 253 20 304 289 315 262 234 208 253 285 292 284 294 294 315
355 328 314 284 261 232 196 209 225 249 264 285 292 297 292 299 306 303 316 312 280 288 257 73 0 328 302 281 273 291 286 193 286 302 270 262 263 283
355 345 335 311 263 217 221 227 257 276 286 294 293 275 274 287 274 267 269 260 265 247 248 260 249 248 269 274 276 278 264 268 284 279 280 279 252 259